This demonstration page uses our WeatherBlox Daily Observations layout. Learn more.

Left ArrowRight Arrow

Hourly Observations for October 8, 2022

Temp ( °F °C ) Dew Point ( °F °C ) Humidity (%) Winds ( mph kmh ) Pressure ( in mb ) Visibility ( mi km ) Precip ( " mm )
12:56 am 00:56 Cloudy 45 7.2 36 2.2 70 70 W 6 9 30.52 1034 10 16 0.00 0.00
1:56 am 01:56 Cloudy 45 7.2 36 2.2 70 70 WSW 3 6 30.51 1033 10 16 0.00 0.00
2:56 am 02:56 Partly Cloudy 44 6.7 37 2.8 76 76 WSW 3 6 30.50 1033 10 16 0.00 0.00
3:56 am 03:56 Cloudy 44 6.7 38 3.3 79 79 WSW 3 6 30.48 1032 10 16 0.00 0.00
4:56 am 04:56 Cloudy 45 7.2 39 3.9 80 80 SW 5 7 30.48 1032 10 16 0.00 0.00
5:56 am 05:56 Clear 39 3.9 37 2.8 93 93 SSW 7 11 30.48 1032 10 16 0.00 0.00
6:56 am 06:56 Clear 38 3.3 36 2.2 92 92 SSW 5 7 30.48 1032 10 16 0.00 0.00
7:56 am 07:56 Sunny 37 2.8 36 2.2 96 96 SW 6 9 30.47 1032 10 16 0.00 0.00
8:56 am 08:56 Sunny 41 5 39 3.9 93 93 SSW 7 11 30.48 1032 10 16 0.00 0.00
9:56 am 09:56 Sunny 47 8.3 40 4.4 76 76 SSW 12 19 30.46 1032 10 16 0.00 0.00
10:56 am 10:56 Sunny 52 11.1 40 4.4 63 63 SW 14 22 30.45 1031 10 16 0.00 0.00
11:56 am 11:56 Sunny 56 13.3 38 3.3 51 51 W 13 20 30.42 1030 10 16 0.00 0.00
12:56 pm 12:56 Sunny 59 15 41 5 51 51 SW 13 20 30.39 1029 10 16 0.00 0.00
1:56 pm 13:56 Sunny 62 16.7 41 5 46 46 WSW 13 20 30.35 1028 10 16 0.00 0.00
2:56 pm 14:56 Sunny 64 17.8 41 5 43 43 W 9 15 30.31 1026 10 16 0.00 0.00
3:56 pm 15:56 Mostly Sunny 66 18.9 38 3.3 35 35 W 14 22 30.27 1025 10 16 0.00 0.00
4:56 pm 16:56 Sunny 66 18.9 38 3.3 35 35 W 8 13 30.25 1025 10 16 0.00 0.00
5:56 pm 17:56 Sunny 66 18.9 39 3.9 37 37 W 10 17 30.25 1024 10 16 0.00 0.00
6:56 pm 18:56 Sunny 63 17.2 40 4.4 43 43 WSW 5 7 30.24 1024 10 16 0.00 0.00
7:56 pm 19:56 Clear 54 12.2 41 5 61 61 SSW 7 11 30.25 1025 10 16 0.00 0.00
8:56 pm 20:56 Clear 53 11.7 42 5.6 66 66 SW 6 9 30.24 1024 10 16 0.00 0.00
9:56 pm 21:56 Clear 50 10 42 5.6 74 74 SW 8 13 30.24 1024 10 16 0.00 0.00
10:56 pm 22:56 Clear 50 10 42 5.6 74 74 SW 8 13 30.25 1024 10 16 0.00 0.00
11:56 pm 23:56 Clear 50 10 41 5 71 71 SW 10 17 30.24 1024 10 16 0.00 0.00

Powered by AerisWeather